EA4LT-13 Weather Reports


Display with metric or nautical units.
time (UTC)temp
F
wind
direction
speed
MPH
gust
MPH
rain 1hr
in
rain 24hr
in
rain mn
in
humidity
%
barometer
mb
20260507181703 66 292 4.0 11.0 0.00 0.00 0.00 47 1006.2
20260507180203 67 315 4.0 11.0 0.00 0.00 0.00 47 1006.4
20260507174702 67 292 7.0 11.0 0.00 0.00 0.00 46 1006.4
20260507173203 68 248 6.0 11.0 0.00 0.00 0.00 44 1006.3
20260507171704 70 248 1.0 10.0 0.00 0.00 0.00 42 1006.3
20260507170203 69 180 2.0 8.0 0.00 0.00 0.00 42 1006.2
20260507164703 70 315 4.0 13.0 0.00 0.00 0.00 44 1006.2
20260507163202 70 180 5.0 12.0 0.00 0.00 0.00 42 1006.4
20260507161702 71 202 1.0 8.0 0.00 0.00 0.00 41 1006.3
20260507160202 71 202 5.0 12.0 0.00 0.00 0.00 42 1006.3
20260507154703 68 225 4.0 11.0 0.00 0.00 0.00 43 1006.4
20260507153202 71 112 3.0 13.0 0.00 0.00 0.00 41 1006.5
20260507151703 69 270 1.0 10.0 0.00 0.00 0.00 42 1006.5
20260507150201 71 158 3.0 11.0 0.00 0.00 0.00 39 1006.7
20260507144702 70 180 3.0 8.0 0.00 0.00 0.00 39 1007.0
20260507143201 69 158 5.0 10.0 0.00 0.00 0.00 41 1006.9
20260507141702 70 202 4.0 12.0 0.00 0.00 0.00 40 1007.1
20260507140203 71 180 4.0 11.0 0.00 0.00 0.00 39 1007.1
20260507134701 68 202 4.0 11.0 0.00 0.00 0.00 44 1007.3
20260507133201 69 292 2.0 13.0 0.00 0.00 0.00 43 1007.3
20260507131702 70 292 3.0 8.0 0.00 0.00 0.00 42 1007.4
20260507130201 70 292 3.0 11.0 0.00 0.00 0.00 43 1007.5
20260507124701 70 158 3.0 10.0 0.00 0.00 0.00 41 1007.5
20260507123202 68 202 6.0 13.0 0.00 0.00 0.00 44 1007.8
20260507121702 69 180 4.0 6.0 0.00 0.00 0.00 42 1008.1
20260507120202 66 180 4.0 6.0 0.00 0.00 0.00 48 1008.3
20260507114701 67 292 3.0 13.0 0.00 0.00 0.00 49 1008.1
20260507113200 68 225 6.0 12.0 0.00 0.00 0.00 48 1008.4
20260507111701 68 180 1.0 9.0 0.00 0.00 0.00 50 1008.4
20260507110201 65 225 3.0 11.0 0.00 0.00 0.00 55 1008.5
20260507104701 65 135 6.0 11.0 0.00 0.00 0.00 55 1008.6
20260507103200 67 180 3.0 11.0 0.00 0.00 0.00 51 1008.4
20260507101701 66 158 3.0 9.0 0.00 0.00 0.00 52 1008.3
20260507100200 66 135 2.0 8.0 0.00 0.00 0.00 52 1008.3
20260507094701 66 158 2.0 4.0 0.00 0.00 0.00 48 1008.1
20260507093200 66 112 0.0 4.0 0.00 0.00 0.00 49 1008.1
20260507091701 64 112 2.0 4.0 0.00 0.00 0.00 53 1008.2
20260507090200 64 202 0.0 3.0 0.00 0.00 0.00 52 1008.3
20260507084700 64 135 1.0 3.0 0.00 0.00 0.00 54 1008.2
20260507083200 63 90 0.0 2.0 0.00 0.00 0.00 57 1007.8
20260507081700 62 22 0.0 6.0 0.00 0.00 0.00 58 1007.9
20260507080200 59 292 1.0 6.0 0.00 0.00 0.00 63 1007.8
20260507074700 58 292 3.0 6.0 0.00 0.00 0.00 65 1007.5
20260507073201 57 315 2.0 6.0 0.00 0.00 0.00 67 1007.4
20260507071700 55 315 3.0 4.0 0.00 0.00 0.00 70 1007.5
20260507070201 52 315 3.0 4.0 0.00 0.00 0.00 79 1007.5
20260507064659 51 270 1.0 3.0 0.00 0.00 0.00 79 1007.4
20260507063200 50 338 2.0 3.0 0.00 0.00 0.00 83 1007.2
20260507061700 49 292 1.0 3.0 0.00 0.00 0.00 86 1007.2
20260507060159 49 315 0.0 3.0 0.00 0.00 0.00 86 1007.4
20260507054659 49 292 0.0 2.0 0.00 0.00 0.00 85 1007.1
20260507053159 52 315 0.0 6.0 0.00 0.00 0.00 75 1007.1
20260507051659 53 315 5.0 8.0 0.00 0.00 0.00 71 1006.8
20260507050159 53 292 5.0 8.0 0.00 0.00 0.00 71 1007.0
20260507044700 52 315 5.0 6.0 0.00 0.00 0.00 74 1007.0
20260507043159 50 292 2.0 4.0 0.00 0.00 0.00 84 1007.0
20260507041658 49 315 3.0 6.0 0.00 0.00 0.00 85 1006.9
20260507040159 50 292 3.0 4.0 0.00 0.00 0.00 82 1007.1
20260507034659 50 292 3.0 6.0 0.00 0.00 0.00 81 1007.3
20260507033158 53 315 3.0 6.0 0.00 0.00 0.00 74 1007.3
20260507031659 53 315 4.0 8.0 0.00 0.00 0.00 74 1007.3
20260507030158 54 292 3.0 6.0 0.00 0.00 0.00 73 1007.4
20260507024658 54 315 3.0 6.0 0.00 0.00 0.00 71 1007.1
20260507023200 54 292 4.0 8.0 0.00 0.00 0.00 71 1007.2
20260507021658 54 315 5.0 8.0 0.00 0.00 0.00 72 1007.2
20260507020158 54 292 4.0 6.0 0.00 0.00 0.00 72 1007.2
20260507014658 54 292 5.0 9.0 0.00 0.00 0.00 72 1007.4
20260507013158 53 315 3.0 8.0 0.00 0.00 0.00 75 1007.3
20260507011658 54 315 6.0 10.0 0.00 0.00 0.00 72 1007.5
20260507010159 54 292 5.0 8.0 0.00 0.00 0.00 72 1007.6
20260507004659 54 315 5.0 9.0 0.00 0.00 0.00 72 1007.8
20260507003158 55 315 6.0 10.0 0.00 0.00 0.00 71 1007.8
20260507001657 54 315 5.0 9.0 0.00 0.00 0.00 72 1007.9
20260507000158 54 315 5.0 9.0 0.00 0.00 0.00 73 1008.1
20260506234657 55 292 6.0 10.0 0.00 0.00 0.00 72 1008.0
20260506233158 55 292 6.0 10.0 0.00 0.00 0.00 73 1007.8
20260506231658 55 315 5.0 10.0 0.00 0.00 0.00 72 1008.0
20260506230157 55 292 6.0 13.0 0.00 0.00 0.00 72 1007.9
20260506224657 55 292 6.0 10.0 0.00 0.00 0.00 72 1008.1
20260506223158 55 292 6.0 11.0 0.00 0.00 0.00 72 1008.2
20260506221657 55 315 8.0 12.0 0.00 0.00 0.00 71 1008.2
20260506220157 56 292 9.0 15.0 0.00 0.00 0.00 70 1008.2
20260506214657 56 292 8.0 15.0 0.00 0.00 0.00 69 1008.0
20260506213157 57 338 6.0 13.0 0.00 0.00 0.00 68 1008.1
20260506211657 57 292 6.0 15.0 0.00 0.00 0.00 67 1008.1
20260506210157 58 315 7.0 13.0 0.00 0.00 0.00 65 1008.1
20260506204658 58 315 8.0 11.0 0.00 0.00 0.00 63 1007.9
20260506203157 59 315 4.0 12.0 0.00 0.00 0.00 60 1008.1
20260506201656 61 315 8.0 12.0 0.00 0.00 0.00 53 1007.6
20260506200157 63 292 5.0 6.0 0.00 0.00 0.00 45 1007.3
20260506194656 64 292 1.0 2.0 0.00 0.00 0.00 43 1007.4
20260506193157 64 292 2.0 4.0 0.00 0.00 0.00 42 1007.3
20260506191656 65 270 2.0 4.0 0.00 0.00 0.00 41 1007.3
20260506190156 66 315 1.0 3.0 0.00 0.00 0.00 40 1007.4
20260506184656 65 315 2.0 3.0 0.00 0.00 0.00 40 1007.4
20260506183157 66 270 2.0 4.0 0.00 0.00 0.00 41 1007.3